CCA4431 ZUUU-ZUDR

Flight info

Callsign CCA4431
Flight time 2h 21m
Altitude 36100
Route MUMGO B213 LXA B345 P462
Aircraft A319/M-SDE3FGHIRWY/LB1

Departure

Time 2026-04-19 05:12
Airport Chengdu Shuangliu International Airport (ZUUU)

Arrival

Time 2026-04-19 07:33
Airport Shigatse Tingri Airport (ZUDR)
Time Latitude Longitude Altitude Speed Heading
2026-04-19 04:55 30.57249 103.95076 1647 ft 0 kts 16°
2026-04-19 05:02 30.57244 103.95074 1647 ft 2 kts 16°
2026-04-19 05:02 30.57228 103.95069 1647 ft 2 kts 16°
2026-04-19 05:02 30.57212 103.95064 1647 ft 2 kts 354°
2026-04-19 05:03 30.57197 103.95069 1647 ft 2 kts 318°
2026-04-19 05:03 30.57190 103.95077 1647 ft 0 kts 294°
2026-04-19 05:04 30.57193 103.95071 1647 ft 2 kts 294°
2026-04-19 05:05 30.57199 103.95055 1647 ft 3 kts 294°
2026-04-19 05:05 30.57208 103.95029 1647 ft 4 kts 294°
2026-04-19 05:05 30.57222 103.94994 1647 ft 5 kts 294°
2026-04-19 05:05 30.57237 103.94950 1647 ft 7 kts 292°
2026-04-19 05:06 30.57255 103.94897 1647 ft 8 kts 291°
2026-04-19 05:06 30.57276 103.94835 1647 ft 9 kts 291°
2026-04-19 05:06 30.57299 103.94764 1647 ft 10 kts 290°
2026-04-19 05:06 30.57308 103.94683 1647 ft 11 kts 243°
2026-04-19 05:07 30.57244 103.94634 1647 ft 12 kts 202°
2026-04-19 05:07 30.57164 103.94597 1647 ft 13 kts 201°
2026-04-19 05:07 30.57077 103.94556 1647 ft 14 kts 202°
2026-04-19 05:07 30.56985 103.94513 1647 ft 15 kts 202°
2026-04-19 05:08 30.56887 103.94468 1647 ft 16 kts 202°
2026-04-19 05:08 30.56678 103.94369 1648 ft 17 kts 202°
2026-04-19 05:08 30.56566 103.94317 1647 ft 18 kts 202°
2026-04-19 05:09 30.56450 103.94261 1648 ft 18 kts 202°
2026-04-19 05:09 30.56353 103.94215 1647 ft 10 kts 202°
2026-04-19 05:09 30.56310 103.94185 1647 ft 8 kts 232°
2026-04-19 05:09 30.56312 103.94121 1647 ft 9 kts 291°
2026-04-19 05:10 30.56337 103.94049 1647 ft 10 kts 292°
2026-04-19 05:10 30.56374 103.94018 1647 ft 7 kts 20°
2026-04-19 05:10 30.56388 103.94024 1647 ft 0 kts 21°
2026-04-19 05:11 30.56395 103.94027 1647 ft 4 kts 21°
2026-04-19 05:11 30.56579 103.94112 1649 ft 63 kts 21°
2026-04-19 05:11 30.57191 103.94397 1645 ft 124 kts 21°
2026-04-19 05:11 30.58150 103.94840 1650 ft 171 kts 21°
2026-04-19 05:12 30.59295 103.95376 2102 ft 178 kts 22°
2026-04-19 05:12 30.60461 103.95861 2699 ft 180 kts
2026-04-19 05:12 30.61714 103.95566 3171 ft 196 kts 338°
2026-04-19 05:12 30.63027 103.94845 3603 ft 221 kts 332°
2026-04-19 05:13 30.64468 103.93974 4126 ft 246 kts 332°
2026-04-19 05:13 30.66058 103.93020 4668 ft 268 kts 333°
2026-04-19 05:13 30.67737 103.92041 5439 ft 277 kts 333°
2026-04-19 05:13 30.69487 103.91051 6363 ft 282 kts 333°
2026-04-19 05:14 30.71267 103.90067 7230 ft 286 kts 334°
2026-04-19 05:14 30.73079 103.89064 8121 ft 290 kts 330°
2026-04-19 05:14 30.74618 103.87571 8942 ft 292 kts 305°
2026-04-19 05:14 30.75467 103.85444 9778 ft 293 kts 280°
2026-04-19 05:15 30.75496 103.83091 10540 ft 294 kts 257°
2026-04-19 05:15 30.74708 103.80884 11091 ft 307 kts 234°
2026-04-19 05:15 30.73246 103.78999 11315 ft 330 kts 225°
2026-04-19 05:15 30.71582 103.77040 11590 ft 349 kts 225°
2026-04-19 05:16 30.69851 103.75012 12176 ft 357 kts 225°
2026-04-19 05:16 30.68098 103.72942 12856 ft 361 kts 227°
2026-04-19 05:16 30.66631 103.70563 13515 ft 366 kts 243°
2026-04-19 05:16 30.65781 103.67775 14140 ft 369 kts 259°
2026-04-19 05:17 30.65626 103.64802 14756 ft 371 kts 275°
2026-04-19 05:17 30.66154 103.61862 15395 ft 374 kts 286°
2026-04-19 05:17 30.66857 103.58993 16062 ft 376 kts 286°
2026-04-19 05:17 30.67572 103.56059 16733 ft 378 kts 286°
2026-04-19 05:18 30.68289 103.53112 17407 ft 381 kts 287°
2026-04-19 05:18 30.69008 103.50146 18081 ft 383 kts 287°
2026-04-19 05:18 30.69731 103.47151 18673 ft 386 kts 286°
2026-04-19 05:18 30.70455 103.44142 19256 ft 388 kts 287°
2026-04-19 05:19 30.71184 103.41116 19857 ft 390 kts 287°
2026-04-19 05:19 30.71917 103.38068 20439 ft 392 kts 286°
2026-04-19 05:19 30.72655 103.35004 21004 ft 395 kts 287°
2026-04-19 05:19 30.73388 103.31962 21567 ft 398 kts 287°
2026-04-19 05:20 30.74138 103.28851 22111 ft 401 kts 287°
2026-04-19 05:20 30.74889 103.25724 22647 ft 403 kts 287°
2026-04-19 05:20 30.75644 103.22573 23182 ft 406 kts 286°
2026-04-19 05:20 30.76402 103.19402 23685 ft 408 kts 287°
2026-04-19 05:21 30.77163 103.16210 24117 ft 411 kts 286°
2026-04-19 05:21 30.77925 103.13004 24550 ft 413 kts 286°
2026-04-19 05:21 30.78683 103.09822 24987 ft 414 kts 287°
2026-04-19 05:21 30.79452 103.06588 25443 ft 416 kts 287°
2026-04-19 05:22 30.80191 103.03323 25855 ft 418 kts 283°
2026-04-19 05:22 30.80556 102.99959 26285 ft 422 kts 274°
2026-04-19 05:22 30.80531 102.96534 26710 ft 425 kts 270°
2026-04-19 05:22 30.80465 102.93093 27123 ft 427 kts 271°
2026-04-19 05:23 30.80401 102.89632 27538 ft 428 kts 271°
2026-04-19 05:23 30.80338 102.86161 27941 ft 430 kts 271°
2026-04-19 05:23 30.80277 102.82723 28311 ft 432 kts 271°
2026-04-19 05:23 30.80217 102.79222 28652 ft 434 kts 271°
2026-04-19 05:24 30.80156 102.75705 28994 ft 436 kts 271°
2026-04-19 05:24 30.80094 102.72172 29332 ft 438 kts 271°
2026-04-19 05:24 30.80025 102.68619 29653 ft 440 kts 271°
2026-04-19 05:24 30.79954 102.65053 30001 ft 442 kts 271°
2026-04-19 05:25 30.79884 102.61481 30403 ft 441 kts 271°
2026-04-19 05:25 30.79812 102.57934 30843 ft 438 kts 271°
2026-04-19 05:25 30.79741 102.54403 31282 ft 436 kts 271°
2026-04-19 05:25 30.79668 102.50939 31724 ft 433 kts 271°
2026-04-19 05:26 30.79594 102.47448 32165 ft 431 kts 271°
2026-04-19 05:26 30.79522 102.43976 32593 ft 429 kts 271°
2026-04-19 05:26 30.79450 102.40519 33054 ft 426 kts 271°
2026-04-19 05:26 30.79377 102.37082 33502 ft 424 kts 271°
2026-04-19 05:27 30.79305 102.33665 33951 ft 422 kts 271°
2026-04-19 05:27 30.79232 102.30263 34352 ft 420 kts 271°
2026-04-19 05:27 30.79158 102.26880 34724 ft 418 kts 271°
2026-04-19 05:27 30.79080 102.23511 35101 ft 416 kts 271°
2026-04-19 05:28 30.79001 102.20198 35491 ft 414 kts 271°
2026-04-19 05:28 30.78923 102.16854 35863 ft 414 kts 271°
2026-04-19 05:28 30.78847 102.13516 35960 ft 413 kts 271°
2026-04-19 05:29 30.78694 102.06856 35967 ft 412 kts 271°
2026-04-19 05:29 30.78530 102.00206 35966 ft 411 kts 270°
2026-04-19 05:30 30.78360 101.93610 35954 ft 411 kts 271°
2026-04-19 05:30 30.78558 101.87008 35966 ft 407 kts 277°
2026-04-19 05:31 30.79116 101.80447 35973 ft 408 kts 277°
2026-04-19 05:31 30.79653 101.73875 35982 ft 408 kts 277°
2026-04-19 05:32 30.80190 101.67313 35978 ft 406 kts 277°
2026-04-19 05:32 30.80722 101.60815 35980 ft 408 kts 277°
2026-04-19 05:33 30.81262 101.54246 35990 ft 408 kts 277°
2026-04-19 05:33 30.81793 101.47701 35982 ft 405 kts 277°
2026-04-19 05:34 30.82312 101.41204 36003 ft 408 kts 277°
2026-04-19 05:34 30.82840 101.34628 36006 ft 408 kts 277°
2026-04-19 05:35 30.83371 101.28039 36001 ft 413 kts 276°
2026-04-19 05:35 30.83910 101.21296 36001 ft 421 kts 276°
2026-04-19 05:36 30.84441 101.14542 35997 ft 422 kts 276°
2026-04-19 05:36 30.84969 101.07737 35990 ft 422 kts 276°
2026-04-19 05:37 30.85493 101.00950 35984 ft 421 kts 276°
2026-04-19 05:37 30.86020 100.94164 35981 ft 421 kts 276°
2026-04-19 05:38 30.86527 100.87419 35973 ft 421 kts 276°
2026-04-19 05:38 30.87048 100.80620 35974 ft 422 kts 276°
2026-04-19 05:39 30.87564 100.73817 35982 ft 422 kts 276°
2026-04-19 05:39 30.88070 100.67008 35985 ft 422 kts 276°
2026-04-19 05:40 30.88570 100.60252 35980 ft 422 kts 276°
2026-04-19 05:40 30.89072 100.53457 35975 ft 421 kts 276°
2026-04-19 05:41 30.89571 100.46668 35972 ft 420 kts 276°
2026-04-19 05:41 30.90066 100.39888 35971 ft 420 kts 276°
2026-04-19 05:42 30.90554 100.33155 35966 ft 420 kts 276°
2026-04-19 05:42 30.91040 100.26379 35965 ft 419 kts 275°
2026-04-19 05:43 30.91517 100.19610 35966 ft 420 kts 275°
2026-04-19 05:43 30.91994 100.12842 35967 ft 419 kts 276°
2026-04-19 05:44 30.92467 100.06136 35968 ft 418 kts 275°
2026-04-19 05:44 30.92939 99.99383 35974 ft 418 kts 275°
2026-04-19 05:45 30.93450 99.92647 35981 ft 418 kts 276°
2026-04-19 05:45 30.94001 99.85916 35986 ft 417 kts 276°
2026-04-19 05:46 30.94545 99.79230 35995 ft 417 kts 276°
2026-04-19 05:46 30.95069 99.72498 36006 ft 417 kts 276°
2026-04-19 05:47 30.95591 99.65776 36005 ft 416 kts 276°
2026-04-19 05:47 30.96114 99.59067 36002 ft 416 kts 276°
2026-04-19 05:48 30.96630 99.52356 35997 ft 416 kts 276°
2026-04-19 05:48 30.97133 99.45695 35998 ft 416 kts 276°
2026-04-19 05:49 30.97637 99.38978 35985 ft 416 kts 275°
2026-04-19 05:49 30.98143 99.32264 35983 ft 416 kts 275°
2026-04-19 05:50 30.98649 99.25551 35985 ft 417 kts 276°
2026-04-19 05:50 30.99145 99.18863 35984 ft 417 kts 275°
2026-04-19 05:51 30.99633 99.12133 35981 ft 417 kts 275°
2026-04-19 05:51 31.00117 99.05400 35973 ft 417 kts 275°
2026-04-19 05:52 31.00607 98.98661 35966 ft 417 kts 275°
2026-04-19 05:52 31.01095 98.91975 35963 ft 417 kts 275°
2026-04-19 05:53 31.01576 98.85239 35960 ft 417 kts 275°
2026-04-19 05:53 31.02054 98.78498 35956 ft 417 kts 275°
2026-04-19 05:54 31.02529 98.71753 35956 ft 417 kts 275°
2026-04-19 05:54 31.03002 98.65058 35953 ft 416 kts 276°
2026-04-19 05:55 31.03543 98.58332 35948 ft 418 kts 276°
2026-04-19 05:55 31.04122 98.51615 35944 ft 416 kts 276°
2026-04-19 05:56 31.04691 98.44899 35952 ft 416 kts 276°
2026-04-19 05:56 31.05239 98.38233 35940 ft 416 kts 276°
2026-04-19 05:57 31.05781 98.31515 35946 ft 416 kts 276°
2026-04-19 05:57 31.06320 98.24798 35949 ft 416 kts 276°
2026-04-19 05:58 31.06867 98.18079 35952 ft 416 kts 276°
2026-04-19 05:58 31.07405 98.11351 35962 ft 417 kts 276°
2026-04-19 05:59 31.07947 98.04665 35962 ft 417 kts 276°
2026-04-19 05:59 31.08496 97.97940 35968 ft 416 kts 276°
2026-04-19 06:00 31.09029 97.91214 35980 ft 416 kts 276°
2026-04-19 06:00 31.09560 97.84538 35974 ft 415 kts 276°
2026-04-19 06:01 31.10090 97.77830 35970 ft 415 kts 276°
2026-04-19 06:01 31.10611 97.71126 35973 ft 415 kts 275°
2026-04-19 06:02 31.11126 97.64424 35971 ft 415 kts 276°
2026-04-19 06:02 31.11646 97.57727 35957 ft 414 kts 276°
2026-04-19 06:03 31.12162 97.51076 35946 ft 415 kts 276°
2026-04-19 06:03 31.12673 97.44374 35931 ft 414 kts 276°
2026-04-19 06:04 31.13183 97.37676 35927 ft 415 kts 276°
2026-04-19 06:04 31.13687 97.30967 35917 ft 415 kts 276°
2026-04-19 06:05 31.14177 97.24297 35906 ft 416 kts 276°
2026-04-19 06:05 31.14430 97.17558 35910 ft 417 kts 266°
2026-04-19 06:06 31.13230 97.10915 35919 ft 420 kts 258°
2026-04-19 06:06 31.11811 97.04308 35924 ft 420 kts 258°
2026-04-19 06:07 31.10404 96.97747 35926 ft 419 kts 258°
2026-04-19 06:07 31.08987 96.91142 35935 ft 420 kts 258°
2026-04-19 06:08 31.07568 96.84531 35958 ft 420 kts 258°
2026-04-19 06:08 31.06139 96.77929 35961 ft 419 kts 258°
2026-04-19 06:09 31.04721 96.71387 35975 ft 420 kts 258°
2026-04-19 06:09 31.03289 96.64797 35981 ft 418 kts 258°
2026-04-19 06:10 31.01858 96.58224 35988 ft 418 kts 258°
2026-04-19 06:10 31.00427 96.51658 35982 ft 418 kts 258°
2026-04-19 06:11 30.98999 96.45143 35989 ft 418 kts 258°
2026-04-19 06:11 30.97562 96.38586 35975 ft 417 kts 258°
2026-04-19 06:12 30.95489 96.28731 35976 ft 417 kts 258°
2026-04-19 06:12 30.94113 96.22171 35976 ft 417 kts 258°
2026-04-19 06:13 30.92734 96.15665 35975 ft 417 kts 258°
2026-04-19 06:13 30.91334 96.09117 35965 ft 417 kts 258°
2026-04-19 06:14 30.89932 96.02569 35961 ft 417 kts 258°
2026-04-19 06:14 30.88530 95.96024 35962 ft 417 kts 258°
2026-04-19 06:15 30.87134 95.89527 35963 ft 417 kts 258°
2026-04-19 06:15 30.85723 95.82972 35955 ft 418 kts 258°
2026-04-19 06:16 30.84305 95.76419 35954 ft 418 kts 258°
2026-04-19 06:16 30.82889 95.69848 35957 ft 419 kts 258°
2026-04-19 06:17 30.81545 95.63291 35971 ft 420 kts 259°
2026-04-19 06:17 30.80198 95.56673 35982 ft 421 kts 259°
2026-04-19 06:18 30.78830 95.50055 35995 ft 421 kts 258°
2026-04-19 06:18 30.77452 95.43429 36019 ft 422 kts 258°
2026-04-19 06:19 30.76087 95.36850 36051 ft 421 kts 259°
2026-04-19 06:19 30.74702 95.30232 36076 ft 421 kts 258°
2026-04-19 06:20 30.73315 95.23623 36085 ft 421 kts 258°
2026-04-19 06:20 30.71926 95.17021 36112 ft 421 kts 258°
2026-04-19 06:21 30.70546 95.10464 36122 ft 420 kts 258°
2026-04-19 06:21 30.69152 95.03867 36135 ft 420 kts 258°
2026-04-19 06:22 30.67757 94.97269 36147 ft 420 kts 258°
2026-04-19 06:22 30.66354 94.90674 36176 ft 421 kts 258°
2026-04-19 06:23 30.64954 94.84076 36154 ft 420 kts 259°
2026-04-19 06:23 30.63563 94.77545 36169 ft 420 kts 258°
2026-04-19 06:24 30.62151 94.70970 36167 ft 419 kts 258°
2026-04-19 06:24 30.60741 94.64395 36175 ft 420 kts 258°
2026-04-19 06:25 30.59327 94.57800 36183 ft 421 kts 258°
2026-04-19 06:25 30.57918 94.51249 36189 ft 421 kts 257°
2026-04-19 06:26 30.56485 94.44660 36179 ft 421 kts 256°
2026-04-19 06:26 30.55053 94.38071 36192 ft 421 kts 257°
2026-04-19 06:27 30.53624 94.31473 36196 ft 422 kts 257°
2026-04-19 06:27 30.52198 94.24910 36194 ft 422 kts 257°
2026-04-19 06:28 30.50758 94.18307 36200 ft 423 kts 257°
2026-04-19 06:28 30.49370 94.11702 36193 ft 421 kts 258°
2026-04-19 06:29 30.48018 94.05094 36192 ft 422 kts 258°
2026-04-19 06:29 30.46664 93.98536 36189 ft 422 kts 257°
2026-04-19 06:30 30.45286 93.91922 36174 ft 421 kts 257°
2026-04-19 06:30 30.43902 93.85334 36168 ft 422 kts 258°
2026-04-19 06:31 30.42507 93.78721 36167 ft 422 kts 257°
2026-04-19 06:31 30.41133 93.72161 36146 ft 422 kts 257°
2026-04-19 06:32 30.39736 93.65559 36138 ft 422 kts 257°
2026-04-19 06:32 30.38141 93.59020 36122 ft 423 kts 249°
2026-04-19 06:33 30.35649 93.52833 36122 ft 424 kts 246°
2026-04-19 06:33 30.33163 93.46691 36113 ft 424 kts 247°
2026-04-19 06:34 30.30667 93.40511 36094 ft 424 kts 247°
2026-04-19 06:34 30.28160 93.34346 36071 ft 423 kts 247°
2026-04-19 06:35 30.25649 93.28178 36058 ft 423 kts 246°
2026-04-19 06:35 30.23147 93.22060 36060 ft 424 kts 246°
2026-04-19 06:36 30.20628 93.15907 36057 ft 423 kts 246°
2026-04-19 06:36 30.18119 93.09766 36030 ft 421 kts 246°
2026-04-19 06:37 30.15611 93.03643 36031 ft 422 kts 246°
2026-04-19 06:37 30.13114 92.97566 36038 ft 422 kts 246°
2026-04-19 06:38 30.10593 92.91438 36044 ft 422 kts 246°
2026-04-19 06:38 30.08065 92.85320 36033 ft 422 kts 246°
2026-04-19 06:39 30.05538 92.79216 36039 ft 421 kts 246°
2026-04-19 06:39 30.03032 92.73149 36051 ft 421 kts 246°
2026-04-19 06:40 30.00510 92.67054 36050 ft 420 kts 246°
2026-04-19 06:40 29.97991 92.60973 36053 ft 420 kts 246°
2026-04-19 06:41 29.95634 92.55247 36067 ft 419 kts 247°
2026-04-19 06:41 29.93122 92.49180 36058 ft 419 kts 246°
2026-04-19 06:42 29.90578 92.43120 36061 ft 420 kts 246°
2026-04-19 06:42 29.88035 92.37064 36060 ft 420 kts 246°
2026-04-19 06:43 29.85517 92.31044 36062 ft 419 kts 246°
2026-04-19 06:43 29.82984 92.24992 36057 ft 420 kts 246°
2026-04-19 06:44 29.80448 92.18944 36053 ft 419 kts 246°
2026-04-19 06:44 29.77911 92.12900 36048 ft 419 kts 246°
2026-04-19 06:45 29.75387 92.06896 36048 ft 420 kts 246°
2026-04-19 06:45 29.72838 92.00856 36042 ft 420 kts 246°
2026-04-19 06:46 29.70292 91.94815 36036 ft 420 kts 246°
2026-04-19 06:46 29.67740 91.88772 36044 ft 420 kts 245°
2026-04-19 06:47 29.65193 91.82776 36032 ft 419 kts 246°
2026-04-19 06:47 29.62633 91.76755 36031 ft 419 kts 246°
2026-04-19 06:48 29.60082 91.70748 36016 ft 417 kts 246°
2026-04-19 06:48 29.57536 91.64759 36017 ft 417 kts 246°
2026-04-19 06:49 29.55007 91.58822 36018 ft 416 kts 246°
2026-04-19 06:49 29.52467 91.52851 36006 ft 416 kts 246°
2026-04-19 06:50 29.49924 91.46894 36005 ft 415 kts 246°
2026-04-19 06:50 29.47377 91.40963 36000 ft 414 kts 246°
2026-04-19 06:51 29.44849 91.35065 35992 ft 414 kts 246°
2026-04-19 06:51 29.42308 91.29140 35988 ft 413 kts 246°
2026-04-19 06:52 29.39779 91.23244 35987 ft 413 kts 246°
2026-04-19 06:52 29.37238 91.17345 35975 ft 412 kts 246°
2026-04-19 06:53 29.34710 91.11492 35965 ft 412 kts 246°
2026-04-19 06:53 29.32163 91.05606 35966 ft 412 kts 246°
2026-04-19 06:54 29.30144 90.99516 35965 ft 408 kts 261°
2026-04-19 06:54 29.29953 90.93046 35964 ft 408 kts 272°
2026-04-19 06:55 29.30219 90.86599 35964 ft 408 kts 272°
2026-04-19 06:55 29.30465 90.80099 35971 ft 409 kts 272°
2026-04-19 06:56 29.30708 90.73593 35981 ft 409 kts 272°
2026-04-19 06:56 29.30952 90.67082 35994 ft 409 kts 272°
2026-04-19 06:57 29.31194 90.60580 36001 ft 408 kts 272°
2026-04-19 06:57 29.31434 90.54131 36004 ft 408 kts 272°
2026-04-19 06:58 29.31670 90.47636 36003 ft 408 kts 272°
2026-04-19 06:58 29.31903 90.41148 36004 ft 406 kts 272°
2026-04-19 06:59 29.32135 90.34698 36000 ft 404 kts 272°
2026-04-19 06:59 29.32359 90.28302 35998 ft 405 kts 272°
2026-04-19 07:00 29.32576 90.21852 35989 ft 405 kts 272°
2026-04-19 07:00 29.32802 90.15422 35990 ft 403 kts 271°
2026-04-19 07:01 29.33020 90.08998 35992 ft 403 kts 271°
2026-04-19 07:01 29.33236 90.02632 35984 ft 401 kts 271°
2026-04-19 07:02 29.33445 89.96250 35981 ft 401 kts 271°
2026-04-19 07:02 29.33649 89.89865 35977 ft 401 kts 271°
2026-04-19 07:03 29.33854 89.83475 35973 ft 401 kts 271°
2026-04-19 07:03 29.34051 89.77083 35969 ft 402 kts 271°
2026-04-19 07:04 29.34249 89.70716 35965 ft 403 kts 271°
2026-04-19 07:04 29.34441 89.64314 35955 ft 402 kts 271°
2026-04-19 07:05 29.34631 89.57905 35953 ft 403 kts 271°
2026-04-19 07:05 29.34815 89.51488 35950 ft 403 kts 271°
2026-04-19 07:06 29.34993 89.45114 35955 ft 403 kts 271°
2026-04-19 07:06 29.35179 89.38692 35952 ft 403 kts 271°
2026-04-19 07:07 29.35306 89.32279 35949 ft 402 kts 266°
2026-04-19 07:07 29.34866 89.29120 35948 ft 402 kts 255°
2026-04-19 07:07 29.33876 89.26116 35942 ft 404 kts 245°
2026-04-19 07:08 29.30501 89.20978 35927 ft 410 kts 231°
2026-04-19 07:08 29.26615 89.16196 35926 ft 411 kts 231°
2026-04-19 07:09 29.22713 89.11401 35916 ft 411 kts 231°
2026-04-19 07:09 29.18818 89.06608 35916 ft 411 kts 231°
2026-04-19 07:10 29.14923 89.01817 35921 ft 411 kts 231°
2026-04-19 07:10 29.11057 88.97054 35920 ft 411 kts 231°
2026-04-19 07:11 29.07153 88.92267 35925 ft 412 kts 231°
2026-04-19 07:11 29.03245 88.87481 35929 ft 411 kts 231°
2026-04-19 07:12 28.99338 88.82709 35928 ft 411 kts 231°
2026-04-19 07:12 28.95451 88.77963 35951 ft 412 kts 231°
2026-04-19 07:13 28.91539 88.73187 35966 ft 412 kts 231°
2026-04-19 07:13 28.87629 88.68422 35968 ft 411 kts 232°
2026-04-19 07:14 28.83711 88.63653 35985 ft 412 kts 231°
2026-04-19 07:14 28.79816 88.58918 36009 ft 412 kts 231°
2026-04-19 07:15 28.75894 88.54149 36025 ft 412 kts 231°
2026-04-19 07:16 28.70013 88.47005 36041 ft 412 kts 231°
2026-04-19 07:16 28.66079 88.42250 36043 ft 412 kts 232°
2026-04-19 07:17 28.63085 88.36880 36052 ft 402 kts 252°
2026-04-19 07:17 28.62049 88.30691 36048 ft 399 kts 269°
2026-04-19 07:18 28.61993 88.24370 36049 ft 399 kts 269°
2026-04-19 07:18 28.61935 88.19105 35732 ft 401 kts 269°
2026-04-19 07:18 28.61898 88.15929 35490 ft 402 kts 269°
2026-04-19 07:19 28.61863 88.12745 35251 ft 404 kts 269°
2026-04-19 07:19 28.61818 88.08500 34932 ft 406 kts 269°
2026-04-19 07:19 28.61782 88.05282 34697 ft 408 kts 269°
2026-04-19 07:19 28.61746 88.02047 34464 ft 411 kts 269°
2026-04-19 07:20 28.61709 87.98790 34227 ft 413 kts 269°
2026-04-19 07:20 28.61671 87.95515 34002 ft 415 kts 269°
2026-04-19 07:20 28.61644 87.93336 33543 ft 417 kts 268°
2026-04-19 07:20 28.61584 87.88868 32092 ft 426 kts 269°
2026-04-19 07:21 28.61537 87.85503 31024 ft 425 kts 269°
2026-04-19 07:21 28.61490 87.82191 29968 ft 424 kts 269°
2026-04-19 07:21 28.61457 87.79931 29219 ft 422 kts 269°
2026-04-19 07:21 28.61414 87.76662 28891 ft 402 kts 269°
2026-04-19 07:22 28.61363 87.72598 28593 ft 376 kts 269°
2026-04-19 07:22 28.61337 87.70650 28394 ft 368 kts 269°
2026-04-19 07:22 28.61297 87.67763 28133 ft 363 kts 269°
2026-04-19 07:22 28.61233 87.64905 27875 ft 360 kts 266°
2026-04-19 07:23 28.60994 87.62075 27628 ft 359 kts 263°
2026-04-19 07:23 28.60568 87.59276 27383 ft 358 kts 259°
2026-04-19 07:23 28.59909 87.55591 26760 ft 359 kts 263°
2026-04-19 07:23 28.59764 87.52777 26246 ft 353 kts 271°
2026-04-19 07:24 28.59796 87.50895 25907 ft 350 kts 271°
2026-04-19 07:24 28.59837 87.48137 25407 ft 347 kts 271°
2026-04-19 07:24 28.59870 87.45437 24920 ft 345 kts 271°
2026-04-19 07:24 28.59909 87.41807 24247 ft 342 kts 271°
2026-04-19 07:25 28.59927 87.40019 23923 ft 340 kts 271°
2026-04-19 07:25 28.59954 87.37342 23427 ft 338 kts 271°
2026-04-19 07:25 28.59982 87.34676 22896 ft 335 kts 271°
2026-04-19 07:25 28.60010 87.32029 22414 ft 334 kts 271°
2026-04-19 07:26 28.60035 87.29396 21932 ft 332 kts 271°
2026-04-19 07:26 28.60059 87.26782 21451 ft 328 kts 271°
2026-04-19 07:26 28.60085 87.24253 20997 ft 321 kts 271°
2026-04-19 07:26 28.60114 87.21734 20531 ft 316 kts 271°
2026-04-19 07:27 28.60145 87.19258 20079 ft 311 kts 270°
2026-04-19 07:27 28.60286 87.16828 19633 ft 303 kts 278°
2026-04-19 07:27 28.60523 87.14510 19204 ft 287 kts 272°
2026-04-19 07:27 28.60464 87.12303 18803 ft 272 kts 264°
2026-04-19 07:28 28.60261 87.10211 18418 ft 260 kts 267°
2026-04-19 07:28 28.60256 87.08196 18030 ft 252 kts 270°
2026-04-19 07:28 28.60275 87.06247 17665 ft 245 kts 271°
2026-04-19 07:28 28.60292 87.04362 17289 ft 232 kts 271°
2026-04-19 07:29 28.60308 87.02590 16965 ft 217 kts 270°
2026-04-19 07:29 28.60324 87.00919 16680 ft 208 kts 270°
2026-04-19 07:29 28.60339 86.99300 16392 ft 202 kts 270°
2026-04-19 07:29 28.60355 86.97742 16170 ft 192 kts 270°
2026-04-19 07:30 28.60369 86.96244 15989 ft 187 kts 270°
2026-04-19 07:30 28.60389 86.94794 15822 ft 181 kts 271°
2026-04-19 07:30 28.60412 86.93410 15598 ft 174 kts 270°
2026-04-19 07:30 28.60419 86.92031 15323 ft 174 kts 269°
2026-04-19 07:31 28.60422 86.90674 15011 ft 169 kts 269°
2026-04-19 07:31 28.60428 86.89341 14773 ft 167 kts 270°
2026-04-19 07:31 28.60442 86.88020 14552 ft 167 kts 270°
2026-04-19 07:31 28.60457 86.86709 14346 ft 165 kts 270°
2026-04-19 07:32 28.60449 86.85411 14256 ft 165 kts 268°
2026-04-19 07:32 28.60459 86.84108 14181 ft 164 kts 270°
2026-04-19 07:32 28.60473 86.82825 14039 ft 163 kts 270°
2026-04-19 07:32 28.60483 86.81536 13937 ft 159 kts 270°
2026-04-19 07:33 28.60495 86.80390 13936 ft 116 kts 270°
2026-04-19 07:33 28.60485 86.79804 13936 ft 44 kts 269°
2026-04-19 07:33 28.60487 86.79483 13939 ft 39 kts 270°
2026-04-19 07:33 28.60489 86.79209 13940 ft 29 kts 270°
2026-04-19 07:34 28.60430 86.79121 13943 ft 15 kts 167°
2026-04-19 07:34 28.60348 86.79135 13940 ft 10 kts 126°
2026-04-19 07:34 28.60345 86.79193 13939 ft 6 kts 89°
2026-04-19 07:34 28.60345 86.79251 13941 ft 9 kts 90°
2026-04-19 07:35 28.60345 86.79332 13942 ft 11 kts 90°
2026-04-19 07:35 28.60345 86.79433 13938 ft 14 kts 90°
2026-04-19 07:35 28.60344 86.79553 13937 ft 16 kts 91°
2026-04-19 07:35 28.60342 86.79666 13936 ft 14 kts 90°
2026-04-19 07:36 28.60293 86.79730 13938 ft 13 kts 191°
2026-04-19 07:36 28.60237 86.79725 13940 ft 0 kts 178°